701  
SXUS51 KOKX 260657  
OSOOKX  
NEW YORK CITY METROPOLITAN AREA WEATHER ROUNDUP  
NATIONAL WEATHER SERVICE NEW YORK NY  
200 AM EST MON FEB 26 2024  
 
CITY SKY/WX TMP DP RH WIND PRES REMARKS  
CENTRAL PARK PTCLDY 36 21 54 SW9G21 30.09R WCI 29  
LAGUARDIA ARPT PTCLDY 35 20 54 SW10 30.07S WCI 27  
KENNEDY INTL MOCLDY 34 26 72 SW13 30.10R WCI 25  
NEWARK LIBERTY MOCLDY 33 22 63 S9 30.08S WCI 25  
TETERBORO ARPT MOCLDY 32 21 64 SW9 30.07S WCI 24  
BRONX LEHMAN C N/A 36 23 60 SW9 N/A WCI 29  
QUEENS COLLEGE N/A 34 25 69 SW8 N/A WCI 27  
BREEZY POINT N/A 36 N/A N/A SW9G15 N/A WCI 29  
BROOKLYN COLL N/A 34 25 69 S12 N/A WCI 25  
STATEN ISLAND N/A 32 25 74 S6 N/A WCI 26  
 
>>>>>>>>>>>>>>>>>>>>>>>>>>>>>>>>> KEY <<<<<<<<<<<<<<<<<<<<<<<<<<<<<<<  
> SKY/WX - SKY CONDITION/PRESENT : R : WCI - WIND CHILL INDEX <  
> WEATHER : E : VSB - VISIBILITY IN MILES <  
> TMP - TEMPERATURE IN DEG F : M : HX - HEAT INDEX <  
> DP - DEW POINT TEMPERATURE : A : TC - TEMPERATURE IN <  
> RH - RELATIVE HUMIDITY : R : CELSIUS <  
> WIND - DIRECTION/SPEED (MPH) : K : VRB - VARIABLE WIND DIR <  
> PRES - PRESSURE (IN HG) : S : <  
>>>>>>>>>>>>>>>>>>>>>>>>>>>>>>>>> KEY <<<<<<<<<<<<<<<<<<<<<<<<<<<<<<<  
 
 
CLICK HERE TO GO TO PREVIOUS BULLETINS.

The Nexlab NY Page
The Nexlab NJ Page
The Nexlab CT Page Main Text Page